Regional Weather Roundup
Issued by NWS

Home | Current Version | Previous Version | Text Only | Print | Product List | Glossary On
Versions: 1 2 3 4 5 6 7 8 9 10 11 12 13 14 15 16 17 18 19 20 21 22 23 24 25 26 27 28 29 30 31 32 33 34 35 36 37 38 39 40 41 42 43 44 45 46 47 48 49 50
000
ASUS46 KSTO 230515
RWRCA

NORTHERN AND CENTRAL CA REGIONAL WEATHER ROUNDUP
NATIONAL WEATHER SERVICE SACRAMENTO CA
1000 PM PDT THU JUN 22 2017

NOTE: FAIR INDICATES FEW OR NO CLOUDS BELOW 12,000 FEET WITH NO
SIGNIFICANT WEATHER AND/OR OBSTRUCTIONS TO VISIBILITY.

CAZ001-003-230600-
NORTHWEST AREA

CITY           SKY/WX    TMP DP  RH WIND       PRES   REMARKS
CRESCENT CITY  FAIR      56  46  69 N16G25    29.82R
UKIAH          CLEAR     85  58  39 S7        29.76R
$$

CAZ006-505>513-230600-
BAY AREA

CITY           SKY/WX    TMP DP  RH WIND       PRES   REMARKS
SANTA ROSA     CLEAR     64  53  67 S7        29.79R
SAN RAFAEL     N/A       76  MM  MM MISG
NAPA           CLEAR     68  59  73 S9        29.79R
CONCORD        CLEAR     78  54  43 SW3       29.76R
OAKLAND CITY   N/A      MM  MM  MM MISG
OAKLAND        CLEAR     63  57  81 N6        29.81R
SAN FRAN CITY  N/A       62  MM  75 MISG
SAN FRAN ARPT  PTCLDY    62  54  74 W13       29.80R
LIVERMORE      CLEAR     74  54  49 W8        29.78R
HAYWARD        CLEAR     67  53  61 N7        29.80R
REDWOOD CITY   N/A       67  MM  77 MISG
MOFFETT ARPT   CLEAR     67  60  78 NW6       29.81R
SAN JOSE ARPT  CLEAR     70  59  68 W8        29.80R
$$
CAZ034-037-514>518-230600-
CENTRAL COAST

CITY           SKY/WX    TMP DP  RH WIND       PRES   REMARKS
WATSONVILLE    CLEAR     57  57 100 SW6       29.85R
SALINAS        CLOUDY    56  55  97 W12       29.85R FOG
MONTEREY       CLOUDY    56  54  93 NE5       29.85R
SAN LUIS OBISP CLOUDY    59  56  89 SW3       29.86R
SANTA MARIA    CLOUDY    58  57  97 N3        29.86R
$$
CAZ015-016-230600-
NORTHERN SACRAMENTO VALLEY

CITY           SKY/WX    TMP DP  RH WIND       PRES   REMARKS
REDDING        CLEAR     96  41  15 N10       29.73R HX  92
RED BLUFF      CLEAR     96  44  16 N13       29.70R HX  92
OROVILLE       CLEAR     88  60  38 SE3       29.68R
$$
CAZ016>018-230600-
SOUTHERN SACRAMENTO VALLEY

CITY           SKY/WX    TMP DP  RH WIND       PRES   REMARKS
AUBURN         CLEAR     82  55  39 CALM      29.80R
BEALE AFB      CLEAR     89  63  41 E6        29.66R HX  90
LINCOLN        FAIR      82  61  47 CALM      29.67R
MARYSVILLE     CLEAR     87  67  51 S3        29.67R HX  90
SAC INTL ARPT  CLEAR     84  64  50 S12       29.67R
MATHER AIRPORT CLEAR     84  59  42 SW9       29.69R
DOWNTOWN SAC   N/A       84  MM  MM MISG
SAC EXEC ARPT  CLEAR     80  59  48 SW8       29.69R
VACAVILLE      CLEAR     89  59  36 S5        29.70R
TRAVIS AFB     CLEAR     72  56  56 SW26      29.69R
$$
CAZ019>021-230600-
SAN JOAQUIN VALLEY

CITY           SKY/WX    TMP DP  RH WIND       PRES   REMARKS
STOCKTON       CLEAR     84  58  40 W15       29.71R
MODESTO        CLEAR     90  61  37 NW10      29.69R HX  90
MERCED         CLEAR     86  58  38 CALM      29.69R
LEMOORE        CLEAR     89  63  41 NW12      29.70R HX  90
FRESNO         CLEAR     96  61  31 NW8       29.70R HX  96
HANFORD        CLEAR     93  65  39 NW10      29.69R HX  95
PORTERVILLE      N/A     89  68  49 SE3       29.72R HX  93
BAKERSFIELD    CLEAR     94  57  28 N10       29.72R HX  92
$$
CAZ011-012-071-230600-
NORTHERN MOUNTAINS

CITY           SKY/WX    TMP DP  RH WIND       PRES   REMARKS
YREKA          CLEAR     75  46  35 N13       30.02R
MOUNT SHASTA   CLEAR     68  45  43 NE6       30.05R
ALTURAS        CLEAR     69  40  34 N8        30.13R
$$
CAZ011-012-071-230600-
SIERRA NEVADA MTNS

CITY           SKY/WX    TMP DP  RH WIND       PRES   REMARKS
BLUE CANYON    CLEAR     75  50  41 NE3       30.13R
TRUCKEE        CLEAR     59  45  58 CALM      30.20R
TAHOE VLY ARPT CLEAR     63  46  54 CALM      30.21R
MAMMOTH LAKES  FAIR      69  47  45 W7        30.27R
$$




USA.gov is the U.S. government's official web portal to all federal, state and local government web resources and services.